owner,sensor,date,latitude,longitude,vertical_datum,mass_concentration_of_oxygen_in_sea_water,qcFlag 
SCCF RECON,ioos:station:SCCF:18:1,2019-01-01T05:00:00Z,26.6955,-81.8138,1.83,7.59,1111122 
SCCF RECON,ioos:station:SCCF:18:1,2019-01-01T06:00:00Z,26.6955,-81.8138,1.82,7.77,1111122 
SCCF RECON,ioos:station:SCCF:18:1,2019-01-01T07:00:00Z,26.6955,-81.8138,1.75,6.95,1111122 
SCCF RECON,ioos:station:SCCF:18:1,2019-01-01T08:00:00Z,26.6955,-81.8138,1.66,7.22,1111122 
SCCF RECON,ioos:station:SCCF:18:1,2019-01-01T09:00:00Z,26.6955,-81.8138,1.6,7.41,1111122 
SCCF RECON,ioos:station:SCCF:18:1,2019-01-01T10:00:00Z,26.6955,-81.8138,1.55,7.46,1111122 
SCCF RECON,ioos:station:SCCF:18:1,2019-01-01T11:00:00Z,26.6955,-81.8138,1.5,7.26,1111122 
SCCF RECON,ioos:station:SCCF:18:1,2019-01-01T12:00:00Z,26.6955,-81.8138,1.449,7.0,1111122 
SCCF RECON,ioos:station:SCCF:18:1,2019-01-01T13:00:00Z,26.6955,-81.8138,1.4,7.57,1111122 
SCCF RECON,ioos:station:SCCF:18:1,2019-01-01T14:00:00Z,26.6955,-81.8138,1.409,7.07,1111122 
SCCF RECON,ioos:station:SCCF:18:1,2019-01-01T15:00:00Z,26.6955,-81.8138,1.441,7.79,1111122 
SCCF RECON,ioos:station:SCCF:18:1,2019-01-01T16:00:00Z,26.6955,-81.8138,1.5,7.77,1111122 
SCCF RECON,ioos:station:SCCF:18:1,2019-01-01T17:00:00Z,26.6955,-81.8138,1.548,7.25,1111122 
SCCF RECON,ioos:station:SCCF:18:1,2019-01-01T18:00:00Z,26.6955,-81.8138,1.58,8.59,1111122 
SCCF RECON,ioos:station:SCCF:18:1,2019-01-01T19:00:00Z,26.6955,-81.8138,1.603,8.14,1111122 
SCCF RECON,ioos:station:SCCF:18:1,2019-01-01T20:00:00Z,26.6955,-81.8138,1.61,9.0,1111122 
SCCF RECON,ioos:station:SCCF:18:1,2019-01-01T21:00:00Z,26.6955,-81.8138,1.59,8.25,1111122 
SCCF RECON,ioos:station:SCCF:18:1,2019-01-01T22:00:00Z,26.6955,-81.8138,1.549,8.65,1111122 
SCCF RECON,ioos:station:SCCF:18:1,2019-01-01T23:00:00Z,26.6955,-81.8138,1.5,8.38,1111122 
SCCF RECON,ioos:station:SCCF:18:1,2019-01-02T05:00:00Z,26.6955,-81.8138,1.74,7.59,1111122 
SCCF RECON,ioos:station:SCCF:18:1,2019-01-02T06:00:00Z,26.6955,-81.8138,1.763,7.76,1111122 
SCCF RECON,ioos:station:SCCF:18:1,2019-01-02T07:00:00Z,26.6955,-81.8138,1.73,7.77,1111122 
SCCF RECON,ioos:station:SCCF:18:1,2019-01-02T08:00:00Z,26.6955,-81.8138,1.64,6.51,1111122 
SCCF RECON,ioos:station:SCCF:18:1,2019-01-02T09:00:00Z,26.6955,-81.8138,1.558,6.71,1111122 
SCCF RECON,ioos:station:SCCF:18:1,2019-01-02T10:00:00Z,26.6955,-81.8138,1.5,7.21,1111122 
SCCF RECON,ioos:station:SCCF:18:1,2019-01-02T11:00:00Z,26.6955,-81.8138,1.46,7.25,1111122 
SCCF RECON,ioos:station:SCCF:18:1,2019-01-02T12:00:00Z,26.6955,-81.8138,1.42,6.68,1111122 
SCCF RECON,ioos:station:SCCF:18:1,2019-01-02T13:00:00Z,26.6955,-81.8138,1.37,6.7,1111122 
SCCF RECON,ioos:station:SCCF:18:1,2019-01-02T14:00:00Z,26.6955,-81.8138,1.34,6.42,1111122 
SCCF RECON,ioos:station:SCCF:18:1,2019-01-02T15:00:00Z,26.6955,-81.8138,1.331,7.03,1111122 
SCCF RECON,ioos:station:SCCF:18:1,2019-01-02T16:00:00Z,26.6955,-81.8138,1.36,7.23,1111122 
SCCF RECON,ioos:station:SCCF:18:1,2019-01-02T17:00:00Z,26.6955,-81.8138,1.41,7.4,1111122 
SCCF RECON,ioos:station:SCCF:18:1,2019-01-02T18:00:00Z,26.6955,-81.8138,1.462,7.65,1111122 
SCCF RECON,ioos:station:SCCF:18:1,2019-01-02T19:00:00Z,26.6955,-81.8138,1.504,7.89,1111122 
SCCF RECON,ioos:station:SCCF:18:1,2019-01-02T20:00:00Z,26.6955,-81.8138,1.533,8.09,1111122 
SCCF RECON,ioos:station:SCCF:18:1,2019-01-02T21:00:00Z,26.6955,-81.8138,1.529,8.3,1111122 
SCCF RECON,ioos:station:SCCF:18:1,2019-01-02T22:00:00Z,26.6955,-81.8138,1.527,9.46,1111122 
SCCF RECON,ioos:station:SCCF:18:1,2019-01-02T23:00:00Z,26.6955,-81.8138,1.54,8.83,1111122 
SCCF RECON,ioos:station:SCCF:18:1,2019-01-03T05:00:00Z,26.6955,-81.8138,1.743,7.56,1111122 
SCCF RECON,ioos:station:SCCF:18:1,2019-01-03T06:00:00Z,26.6955,-81.8138,1.786,7.44,1111122 
SCCF RECON,ioos:station:SCCF:18:1,2019-01-03T07:00:00Z,26.6955,-81.8138,1.79,7.55,1111122 
SCCF RECON,ioos:station:SCCF:18:1,2019-01-03T08:00:00Z,26.6955,-81.8138,1.72,7.12,1111122 
SCCF RECON,ioos:station:SCCF:18:1,2019-01-03T09:00:00Z,26.6955,-81.8138,1.632,6.68,1111122 
SCCF RECON,ioos:station:SCCF:18:1,2019-01-03T10:00:00Z,26.6955,-81.8138,1.56,7.11,1111122 
SCCF RECON,ioos:station:SCCF:18:1,2019-01-03T11:00:00Z,26.6955,-81.8138,1.51,6.93,1111122 
SCCF RECON,ioos:station:SCCF:18:1,2019-01-03T12:00:00Z,26.6955,-81.8138,1.47,6.83,1111122 
SCCF RECON,ioos:station:SCCF:18:1,2019-01-03T13:00:00Z,26.6955,-81.8138,1.41,6.53,1111122 
SCCF RECON,ioos:station:SCCF:18:1,2019-01-03T14:00:00Z,26.6955,-81.8138,1.35,6.44,1111122 
SCCF RECON,ioos:station:SCCF:18:1,2019-01-03T15:00:00Z,26.6955,-81.8138,1.33,7.06,1111122 
SCCF RECON,ioos:station:SCCF:18:1,2019-01-03T16:00:00Z,26.6955,-81.8138,1.34,6.68,1111122 
SCCF RECON,ioos:station:SCCF:18:1,2019-01-03T17:00:00Z,26.6955,-81.8138,1.378,7.06,1111122 
SCCF RECON,ioos:station:SCCF:18:1,2019-01-03T18:00:00Z,26.6955,-81.8138,1.448,6.82,1111122 
SCCF RECON,ioos:station:SCCF:18:1,2019-01-03T19:00:00Z,26.6955,-81.8138,1.503,7.03,1111122 
SCCF RECON,ioos:station:SCCF:18:1,2019-01-03T20:00:00Z,26.6955,-81.8138,1.54,6.76,1111122 
SCCF RECON,ioos:station:SCCF:18:1,2019-01-03T21:00:00Z,26.6955,-81.8138,1.559,6.99,1111122 
SCCF RECON,ioos:station:SCCF:18:1,2019-01-03T22:00:00Z,26.6955,-81.8138,1.57,7.52,1111122 
SCCF RECON,ioos:station:SCCF:18:1,2019-01-03T23:00:00Z,26.6955,-81.8138,1.549,7.27,1111122 
SCCF RECON,ioos:station:SCCF:18:1,2019-01-04T05:00:00Z,26.6955,-81.8138,1.67,6.41,1111122 
SCCF RECON,ioos:station:SCCF:18:1,2019-01-04T06:00:00Z,26.6955,-81.8138,1.709,6.35,1111122 
SCCF RECON,ioos:station:SCCF:18:1,2019-01-04T07:00:00Z,26.6955,-81.8138,1.74,6.47,1111122 
SCCF RECON,ioos:station:SCCF:18:1,2019-01-04T08:00:00Z,26.6955,-81.8138,1.74,6.46,1111122 
SCCF RECON,ioos:station:SCCF:18:1,2019-01-04T09:00:00Z,26.6955,-81.8138,1.66,6.39,1111122 
SCCF RECON,ioos:station:SCCF:18:1,2019-01-04T10:00:00Z,26.6955,-81.8138,1.58,6.17,1111122 
SCCF RECON,ioos:station:SCCF:18:1,2019-01-04T11:00:00Z,26.6955,-81.8138,1.52,6.03,1111122 
SCCF RECON,ioos:station:SCCF:18:1,2019-01-04T12:00:00Z,26.6955,-81.8138,1.471,6.09,1111122 
SCCF RECON,ioos:station:SCCF:18:1,2019-01-04T13:00:00Z,26.6955,-81.8138,1.435,6.15,1111122 
SCCF RECON,ioos:station:SCCF:18:1,2019-01-04T14:00:00Z,26.6955,-81.8138,1.38,5.99,1111122 
SCCF RECON,ioos:station:SCCF:18:1,2019-01-04T15:00:00Z,26.6955,-81.8138,1.341,6.1,1111122 
SCCF RECON,ioos:station:SCCF:18:1,2019-01-04T16:00:00Z,26.6955,-81.8138,1.35,6.28,1111122 
SCCF RECON,ioos:station:SCCF:18:1,2019-01-04T17:00:00Z,26.6955,-81.8138,1.436,6.37,1111122 
SCCF RECON,ioos:station:SCCF:18:1,2019-01-04T18:00:00Z,26.6955,-81.8138,1.52,6.53,1111122 
SCCF RECON,ioos:station:SCCF:18:1,2019-01-04T19:00:00Z,26.6955,-81.8138,1.594,6.69,1111122 
SCCF RECON,ioos:station:SCCF:18:1,2019-01-04T20:00:00Z,26.6955,-81.8138,1.651,6.78,1111122 
SCCF RECON,ioos:station:SCCF:18:1,2019-01-04T21:00:00Z,26.6955,-81.8138,1.692,6.74,1111122 
SCCF RECON,ioos:station:SCCF:18:1,2019-01-04T22:00:00Z,26.6955,-81.8138,1.724,6.54,1111122 
SCCF RECON,ioos:station:SCCF:18:1,2019-01-04T23:00:00Z,26.6955,-81.8138,1.728,6.81,1111122 
SCCF RECON,ioos:station:SCCF:18:1,2019-01-05T05:00:00Z,26.6955,-81.8138,1.75,6.19,1111122 
SCCF RECON,ioos:station:SCCF:18:1,2019-01-05T06:00:00Z,26.6955,-81.8138,1.8,6.16,1111122 
SCCF RECON,ioos:station:SCCF:18:1,2019-01-05T07:00:00Z,26.6955,-81.8138,1.83,6.25,1111122 
SCCF RECON,ioos:station:SCCF:18:1,2019-01-05T08:00:00Z,26.6955,-81.8138,1.83,6.33,1111122 
SCCF RECON,ioos:station:SCCF:18:1,2019-01-05T09:00:00Z,26.6955,-81.8138,1.77,6.24,1111122 
SCCF RECON,ioos:station:SCCF:18:1,2019-01-05T10:00:00Z,26.6955,-81.8138,1.69,6.11,1111122 
SCCF RECON,ioos:station:SCCF:18:1,2019-01-05T11:00:00Z,26.6955,-81.8138,1.62,6.17,1111122 
SCCF RECON,ioos:station:SCCF:18:1,2019-01-05T12:00:00Z,26.6955,-81.8138,1.57,6.14,1111122 
SCCF RECON,ioos:station:SCCF:18:1,2019-01-05T13:00:00Z,26.6955,-81.8138,1.52,5.99,1111122 
SCCF RECON,ioos:station:SCCF:18:1,2019-01-05T14:00:00Z,26.6955,-81.8138,1.47,6.0,1111122 
SCCF RECON,ioos:station:SCCF:18:1,2019-01-05T15:00:00Z,26.6955,-81.8138,1.424,6.0,1111122 
SCCF RECON,ioos:station:SCCF:18:1,2019-01-05T16:00:00Z,26.6955,-81.8138,1.397,5.87,1111122 
SCCF RECON,ioos:station:SCCF:18:1,2019-01-05T17:00:00Z,26.6955,-81.8138,1.4,6.83,1111122 
SCCF RECON,ioos:station:SCCF:18:1,2019-01-05T18:00:00Z,26.6955,-81.8138,1.449,6.97,1111122 
SCCF RECON,ioos:station:SCCF:18:1,2019-01-05T19:00:00Z,26.6955,-81.8138,1.496,6.79,1111122 
SCCF RECON,ioos:station:SCCF:18:1,2019-01-05T20:00:00Z,26.6955,-81.8138,1.555,6.53,1111122 
SCCF RECON,ioos:station:SCCF:18:1,2019-01-05T21:00:00Z,26.6955,-81.8138,1.59,6.5,1111122 
SCCF RECON,ioos:station:SCCF:18:1,2019-01-05T22:00:00Z,26.6955,-81.8138,1.59,6.83,1111122 
SCCF RECON,ioos:station:SCCF:18:1,2019-01-05T23:00:00Z,26.6955,-81.8138,1.548,6.77,1111122 
SCCF RECON,ioos:station:SCCF:18:1,2019-01-06T05:00:00Z,26.6955,-81.8138,1.53,6.53,1111122 
SCCF RECON,ioos:station:SCCF:18:1,2019-01-06T06:00:00Z,26.6955,-81.8138,1.61,6.09,1111122 
SCCF RECON,ioos:station:SCCF:18:1,2019-01-06T07:00:00Z,26.6955,-81.8138,1.66,6.23,1111122 
SCCF RECON,ioos:station:SCCF:18:1,2019-01-06T08:00:00Z,26.6955,-81.8138,1.68,6.38,1111122 
SCCF RECON,ioos:station:SCCF:18:1,2019-01-06T09:00:00Z,26.6955,-81.8138,1.65,6.6,1111122 
SCCF RECON,ioos:station:SCCF:18:1,2019-01-06T10:00:00Z,26.6955,-81.8138,1.579,6.61,1111122 
SCCF RECON,ioos:station:SCCF:18:1,2019-01-06T11:00:00Z,26.6955,-81.8138,1.51,6.48,1111122 
SCCF RECON,ioos:station:SCCF:18:1,2019-01-06T12:00:00Z,26.6955,-81.8138,1.47,6.43,1111122 
SCCF RECON,ioos:station:SCCF:18:1,2019-01-06T13:00:00Z,26.6955,-81.8138,1.43,6.39,1111122 
SCCF RECON,ioos:station:SCCF:18:1,2019-01-06T14:00:00Z,26.6955,-81.8138,1.38,6.32,1111122 
SCCF RECON,ioos:station:SCCF:18:1,2019-01-06T15:00:00Z,26.6955,-81.8138,1.32,6.24,1111122 
SCCF RECON,ioos:station:SCCF:18:1,2019-01-06T16:00:00Z,26.6955,-81.8138,1.26,6.22,1111122 
SCCF RECON,ioos:station:SCCF:18:1,2019-01-06T17:00:00Z,26.6955,-81.8138,1.225,6.89,1111122 
SCCF RECON,ioos:station:SCCF:18:1,2019-01-06T18:00:00Z,26.6955,-81.8138,1.21,7.42,1111122 
SCCF RECON,ioos:station:SCCF:18:1,2019-01-06T19:00:00Z,26.6955,-81.8138,1.251,7.36,1111122 
SCCF RECON,ioos:station:SCCF:18:1,2019-01-06T20:00:00Z,26.6955,-81.8138,1.324,7.21,1111122 
SCCF RECON,ioos:station:SCCF:18:1,2019-01-06T21:00:00Z,26.6955,-81.8138,1.39,6.84,1111122 
SCCF RECON,ioos:station:SCCF:18:1,2019-01-06T22:00:00Z,26.6955,-81.8138,1.421,7.77,1111122 
SCCF RECON,ioos:station:SCCF:18:1,2019-01-06T23:00:00Z,26.6955,-81.8138,1.45,7.02,1111122 
SCCF RECON,ioos:station:SCCF:18:1,2019-01-07T05:00:00Z,26.6955,-81.8138,1.5,6.55,1111122 
SCCF RECON,ioos:station:SCCF:18:1,2019-01-07T06:00:00Z,26.6955,-81.8138,1.57,6.5,1111122 
SCCF RECON,ioos:station:SCCF:18:1,2019-01-07T07:00:00Z,26.6955,-81.8138,1.629,6.48,1111122 
SCCF RECON,ioos:station:SCCF:18:1,2019-01-07T09:00:00Z,26.6955,-81.8138,1.69,6.59,1111122 
SCCF RECON,ioos:station:SCCF:18:1,2019-01-07T10:00:00Z,26.6955,-81.8138,1.66,6.45,1111122 
SCCF RECON,ioos:station:SCCF:18:1,2019-01-07T11:00:00Z,26.6955,-81.8138,1.59,6.39,1111122 
SCCF RECON,ioos:station:SCCF:18:1,2019-01-07T12:00:00Z,26.6955,-81.8138,1.524,6.44,1111122 
SCCF RECON,ioos:station:SCCF:18:1,2019-01-07T13:00:00Z,26.6955,-81.8138,1.48,6.39,1111122 
SCCF RECON,ioos:station:SCCF:18:1,2019-01-07T14:00:00Z,26.6955,-81.8138,1.435,6.47,1111122 
SCCF RECON,ioos:station:SCCF:18:1,2019-01-07T15:00:00Z,26.6955,-81.8138,1.39,6.46,1111122 
SCCF RECON,ioos:station:SCCF:18:1,2019-01-07T16:00:00Z,26.6955,-81.8138,1.33,6.44,1111122 
SCCF RECON,ioos:station:SCCF:18:1,2019-01-07T17:00:00Z,26.6955,-81.8138,1.287,6.74,1111122 
SCCF RECON,ioos:station:SCCF:18:1,2019-01-07T18:00:00Z,26.6955,-81.8138,1.29,7.19,1111122 
SCCF RECON,ioos:station:SCCF:18:1,2019-01-07T19:00:00Z,26.6955,-81.8138,1.36,7.02,1111122 
SCCF RECON,ioos:station:SCCF:18:1,2019-01-07T20:00:00Z,26.6955,-81.8138,1.442,7.23,1111122 
SCCF RECON,ioos:station:SCCF:18:1,2019-01-07T21:00:00Z,26.6955,-81.8138,1.495,7.46,1111122 
SCCF RECON,ioos:station:SCCF:18:1,2019-01-07T22:00:00Z,26.6955,-81.8138,1.53,7.38,1111122 
SCCF RECON,ioos:station:SCCF:18:1,2019-01-07T23:00:00Z,26.6955,-81.8138,1.565,7.36,1111122 
SCCF RECON,ioos:station:SCCF:18:1,2019-01-08T05:00:00Z,26.6955,-81.8138,1.468,7.11,1111122 
SCCF RECON,ioos:station:SCCF:18:1,2019-01-08T06:00:00Z,26.6955,-81.8138,1.551,6.8,1111122 
SCCF RECON,ioos:station:SCCF:18:1,2019-01-08T07:00:00Z,26.6955,-81.8138,1.64,6.53,1111122 
SCCF RECON,ioos:station:SCCF:18:1,2019-01-08T08:00:00Z,26.6955,-81.8138,1.681,6.53,1111122 
SCCF RECON,ioos:station:SCCF:18:1,2019-01-08T09:00:00Z,26.6955,-81.8138,1.708,6.42,1111122 
SCCF RECON,ioos:station:SCCF:18:1,2019-01-08T10:00:00Z,26.6955,-81.8138,1.71,6.74,1111122 
SCCF RECON,ioos:station:SCCF:18:1,2019-01-08T11:00:00Z,26.6955,-81.8138,1.659,6.3,1111122 
SCCF RECON,ioos:station:SCCF:18:1,2019-01-08T12:00:00Z,26.6955,-81.8138,1.58,6.31,1111122 
SCCF RECON,ioos:station:SCCF:18:1,2019-01-08T13:00:00Z,26.6955,-81.8138,1.522,6.35,1111122 
SCCF RECON,ioos:station:SCCF:18:1,2019-01-08T14:00:00Z,26.6955,-81.8138,1.48,6.5,1111122 
SCCF RECON,ioos:station:SCCF:18:1,2019-01-08T15:00:00Z,26.6955,-81.8138,1.44,6.62,1111122 
SCCF RECON,ioos:station:SCCF:18:1,2019-01-08T16:00:00Z,26.6955,-81.8138,1.38,6.6,1111122 
SCCF RECON,ioos:station:SCCF:18:1,2019-01-08T17:00:00Z,26.6955,-81.8138,1.33,6.8,1111122 
SCCF RECON,ioos:station:SCCF:18:1,2019-01-08T18:00:00Z,26.6955,-81.8138,1.315,7.0,1111122 
SCCF RECON,ioos:station:SCCF:18:1,2019-01-08T19:00:00Z,26.6955,-81.8138,1.37,7.12,1111122 
SCCF RECON,ioos:station:SCCF:18:1,2019-01-08T20:00:00Z,26.6955,-81.8138,1.455,6.92,1111122 
SCCF RECON,ioos:station:SCCF:18:1,2019-01-08T21:00:00Z,26.6955,-81.8138,1.519,7.56,1111122 
SCCF RECON,ioos:station:SCCF:18:1,2019-01-08T22:00:00Z,26.6955,-81.8138,1.56,7.34,1111122 
SCCF RECON,ioos:station:SCCF:18:1,2019-01-08T23:00:00Z,26.6955,-81.8138,1.622,7.16,1111122 
SCCF RECON,ioos:station:SCCF:18:1,2019-01-09T05:00:00Z,26.6955,-81.8138,1.481,6.64,1111122 
SCCF RECON,ioos:station:SCCF:18:1,2019-01-09T06:00:00Z,26.6955,-81.8138,1.56,6.66,1111122 
SCCF RECON,ioos:station:SCCF:18:1,2019-01-09T07:00:00Z,26.6955,-81.8138,1.641,6.3,1111122 
SCCF RECON,ioos:station:SCCF:18:1,2019-01-09T08:00:00Z,26.6955,-81.8138,1.7,6.48,1111122 
SCCF RECON,ioos:station:SCCF:18:1,2019-01-09T09:00:00Z,26.6955,-81.8138,1.718,6.42,1111122 
SCCF RECON,ioos:station:SCCF:18:1,2019-01-09T10:00:00Z,26.6955,-81.8138,1.73,6.55,1111122 
SCCF RECON,ioos:station:SCCF:18:1,2019-01-09T11:00:00Z,26.6955,-81.8138,1.69,6.43,1111122 
SCCF RECON,ioos:station:SCCF:18:1,2019-01-09T12:00:00Z,26.6955,-81.8138,1.61,6.35,1111122 
SCCF RECON,ioos:station:SCCF:18:1,2019-01-09T13:00:00Z,26.6955,-81.8138,1.54,6.38,1111122 
SCCF RECON,ioos:station:SCCF:18:1,2019-01-09T14:00:00Z,26.6955,-81.8138,1.5,6.4,1111122 
SCCF RECON,ioos:station:SCCF:18:1,2019-01-09T15:00:00Z,26.6955,-81.8138,1.449,6.84,1111122 
SCCF RECON,ioos:station:SCCF:18:1,2019-01-09T18:00:00Z,26.6955,-81.8138,1.261,7.33,1111122 
SCCF RECON,ioos:station:SCCF:18:1,2019-01-09T19:00:00Z,26.6955,-81.8138,1.243,7.57,1111122 
SCCF RECON,ioos:station:SCCF:18:1,2019-01-09T20:00:00Z,26.6955,-81.8138,1.278,7.44,1111122 
SCCF RECON,ioos:station:SCCF:18:1,2019-01-09T21:00:00Z,26.6955,-81.8138,1.36,7.36,1111122 
SCCF RECON,ioos:station:SCCF:18:1,2019-01-09T22:00:00Z,26.6955,-81.8138,1.44,7.0,1111122 
SCCF RECON,ioos:station:SCCF:18:1,2019-01-09T23:00:00Z,26.6955,-81.8138,1.47,7.27,1111122 
SCCF RECON,ioos:station:SCCF:18:1,2019-01-10T05:00:00Z,26.6955,-81.8138,1.32,7.37,1111122 
SCCF RECON,ioos:station:SCCF:18:1,2019-01-10T06:00:00Z,26.6955,-81.8138,1.363,7.44,1111122 
SCCF RECON,ioos:station:SCCF:18:1,2019-01-10T07:00:00Z,26.6955,-81.8138,1.43,6.98,1111122 
SCCF RECON,ioos:station:SCCF:18:1,2019-01-10T08:00:00Z,26.6955,-81.8138,1.49,6.84,1111122 
SCCF RECON,ioos:station:SCCF:18:1,2019-01-10T09:00:00Z,26.6955,-81.8138,1.517,6.86,1111122 
SCCF RECON,ioos:station:SCCF:18:1,2019-01-10T10:00:00Z,26.6955,-81.8138,1.53,6.86,1111122 
SCCF RECON,ioos:station:SCCF:18:1,2019-01-10T11:00:00Z,26.6955,-81.8138,1.52,7.08,1111122 
SCCF RECON,ioos:station:SCCF:18:1,2019-01-10T12:00:00Z,26.6955,-81.8138,1.47,6.84,1111122 
SCCF RECON,ioos:station:SCCF:18:1,2019-01-10T13:00:00Z,26.6955,-81.8138,1.41,6.8,1111122 
SCCF RECON,ioos:station:SCCF:18:1,2019-01-10T14:00:00Z,26.6955,-81.8138,1.36,6.77,1111122 
SCCF RECON,ioos:station:SCCF:18:1,2019-01-10T15:00:00Z,26.6955,-81.8138,1.32,7.02,1111122 
SCCF RECON,ioos:station:SCCF:18:1,2019-01-10T16:00:00Z,26.6955,-81.8138,1.27,7.03,1111122 
SCCF RECON,ioos:station:SCCF:18:1,2019-01-10T17:00:00Z,26.6955,-81.8138,1.212,7.12,1111122 
SCCF RECON,ioos:station:SCCF:18:1,2019-01-10T18:00:00Z,26.6955,-81.8138,1.16,7.15,1111122 
SCCF RECON,ioos:station:SCCF:18:1,2019-01-10T19:00:00Z,26.6955,-81.8138,1.13,7.37,1111122 
SCCF RECON,ioos:station:SCCF:18:1,2019-01-10T23:00:00Z,26.6955,-81.8138,1.37,7.76,1111122 
SCCF RECON,ioos:station:SCCF:18:1,2019-01-11T05:00:00Z,26.6955,-81.8138,1.34,7.69,1111122 
SCCF RECON,ioos:station:SCCF:18:1,2019-01-11T06:00:00Z,26.6955,-81.8138,1.341,7.46,1111122 
SCCF RECON,ioos:station:SCCF:18:1,2019-01-11T07:00:00Z,26.6955,-81.8138,1.401,7.43,1111122 
SCCF RECON,ioos:station:SCCF:18:1,2019-01-11T08:00:00Z,26.6955,-81.8138,1.466,7.02,1111122 
SCCF RECON,ioos:station:SCCF:18:1,2019-01-11T09:00:00Z,26.6955,-81.8138,1.52,7.14,1111122 
SCCF RECON,ioos:station:SCCF:18:1,2019-01-11T10:00:00Z,26.6955,-81.8138,1.558,7.2,1111122 
SCCF RECON,ioos:station:SCCF:18:1,2019-01-11T11:00:00Z,26.6955,-81.8138,1.59,7.1,1111122 
SCCF RECON,ioos:station:SCCF:18:1,2019-01-11T12:00:00Z,26.6955,-81.8138,1.592,7.2,1111122 
SCCF RECON,ioos:station:SCCF:18:1,2019-01-11T13:00:00Z,26.6955,-81.8138,1.553,6.87,1111122 
SCCF RECON,ioos:station:SCCF:18:1,2019-01-11T14:00:00Z,26.6955,-81.8138,1.498,6.97,1111122 
SCCF RECON,ioos:station:SCCF:18:1,2019-01-11T15:00:00Z,26.6955,-81.8138,1.44,7.06,1111122 
SCCF RECON,ioos:station:SCCF:18:1,2019-01-11T17:00:00Z,26.6955,-81.8138,1.36,7.56,1111122 
SCCF RECON,ioos:station:SCCF:18:1,2019-01-11T18:00:00Z,26.6955,-81.8138,1.309,7.75,1111122 
SCCF RECON,ioos:station:SCCF:18:1,2019-01-11T20:00:00Z,26.6955,-81.8138,1.31,8.54,1111122 
SCCF RECON,ioos:station:SCCF:18:1,2019-01-11T22:00:00Z,26.6955,-81.8138,1.47,7.93,1111122 
SCCF RECON,ioos:station:SCCF:18:1,2019-01-12T05:00:00Z,26.6955,-81.8138,1.451,7.73,1111122 
SCCF RECON,ioos:station:SCCF:18:1,2019-01-12T06:00:00Z,26.6955,-81.8138,1.44,7.52,1111122 
SCCF RECON,ioos:station:SCCF:18:1,2019-01-12T07:00:00Z,26.6955,-81.8138,1.43,7.51,1111122 
SCCF RECON,ioos:station:SCCF:18:1,2019-01-12T08:00:00Z,26.6955,-81.8138,1.45,7.53,1111122 
SCCF RECON,ioos:station:SCCF:18:1,2019-01-12T09:00:00Z,26.6955,-81.8138,1.51,7.4,1111122 
SCCF RECON,ioos:station:SCCF:18:1,2019-01-12T10:00:00Z,26.6955,-81.8138,1.57,7.05,1111122 
SCCF RECON,ioos:station:SCCF:18:1,2019-01-12T11:00:00Z,26.6955,-81.8138,1.6,7.12,1111122 
SCCF RECON,ioos:station:SCCF:18:1,2019-01-12T12:00:00Z,26.6955,-81.8138,1.62,7.57,1111122 
SCCF RECON,ioos:station:SCCF:18:1,2019-01-12T13:00:00Z,26.6955,-81.8138,1.621,7.41,1111122 
SCCF RECON,ioos:station:SCCF:18:1,2019-01-12T14:00:00Z,26.6955,-81.8138,1.57,6.83,1111122 
SCCF RECON,ioos:station:SCCF:18:1,2019-01-12T15:00:00Z,26.6955,-81.8138,1.51,7.05,1111122 
SCCF RECON,ioos:station:SCCF:18:1,2019-01-12T16:00:00Z,26.6955,-81.8138,1.445,7.46,1111122 
SCCF RECON,ioos:station:SCCF:18:1,2019-01-12T17:00:00Z,26.6955,-81.8138,1.406,7.55,1111122 
SCCF RECON,ioos:station:SCCF:18:1,2019-01-12T18:00:00Z,26.6955,-81.8138,1.377,7.56,1111122 
SCCF RECON,ioos:station:SCCF:18:1,2019-01-12T19:00:00Z,26.6955,-81.8138,1.349,7.76,1111122 
SCCF RECON,ioos:station:SCCF:18:1,2019-01-12T20:00:00Z,26.6955,-81.8138,1.361,8.02,1111122 
SCCF RECON,ioos:station:SCCF:18:1,2019-01-12T21:00:00Z,26.6955,-81.8138,1.438,7.51,1111122 
SCCF RECON,ioos:station:SCCF:18:1,2019-01-12T22:00:00Z,26.6955,-81.8138,1.532,7.93,1111122 
SCCF RECON,ioos:station:SCCF:18:1,2019-01-13T05:00:00Z,26.6955,-81.8138,1.58,7.41,1111122 
SCCF RECON,ioos:station:SCCF:18:1,2019-01-13T06:00:00Z,26.6955,-81.8138,1.54,7.41,1111122 
SCCF RECON,ioos:station:SCCF:18:1,2019-01-13T07:00:00Z,26.6955,-81.8138,1.51,7.35,1111122 
SCCF RECON,ioos:station:SCCF:18:1,2019-01-13T08:00:00Z,26.6955,-81.8138,1.478,7.4,1111122 
SCCF RECON,ioos:station:SCCF:18:1,2019-01-13T09:00:00Z,26.6955,-81.8138,1.47,7.14,1111122 
SCCF RECON,ioos:station:SCCF:18:1,2019-01-13T10:00:00Z,26.6955,-81.8138,1.52,7.3,1111122 
SCCF RECON,ioos:station:SCCF:18:1,2019-01-13T11:00:00Z,26.6955,-81.8138,1.59,6.93,1111122 
SCCF RECON,ioos:station:SCCF:18:1,2019-01-13T12:00:00Z,26.6955,-81.8138,1.65,7.11,1111122 
SCCF RECON,ioos:station:SCCF:18:1,2019-01-13T13:00:00Z,26.6955,-81.8138,1.67,6.83,1111122 
SCCF RECON,ioos:station:SCCF:18:1,2019-01-13T14:00:00Z,26.6955,-81.8138,1.677,7.15,1111122 
SCCF RECON,ioos:station:SCCF:18:1,2019-01-13T15:00:00Z,26.6955,-81.8138,1.633,7.14,1111122 
SCCF RECON,ioos:station:SCCF:18:1,2019-01-13T16:00:00Z,26.6955,-81.8138,1.569,7.08,1111122 
SCCF RECON,ioos:station:SCCF:18:1,2019-01-13T17:00:00Z,26.6955,-81.8138,1.507,6.93,1111122 
SCCF RECON,ioos:station:SCCF:18:1,2019-01-13T18:00:00Z,26.6955,-81.8138,1.472,7.01,1111122 
SCCF RECON,ioos:station:SCCF:18:1,2019-01-13T19:00:00Z,26.6955,-81.8138,1.44,7.72,1111122 
SCCF RECON,ioos:station:SCCF:18:1,2019-01-13T20:00:00Z,26.6955,-81.8138,1.41,7.27,1111122 
SCCF RECON,ioos:station:SCCF:18:1,2019-01-13T21:00:00Z,26.6955,-81.8138,1.406,7.45,1111122 
SCCF RECON,ioos:station:SCCF:18:1,2019-01-13T22:00:00Z,26.6955,-81.8138,1.466,7.91,1111122 
SCCF RECON,ioos:station:SCCF:18:1,2019-01-14T05:00:00Z,26.6955,-81.8138,1.57,7.36,1111122 
SCCF RECON,ioos:station:SCCF:18:1,2019-01-14T06:00:00Z,26.6955,-81.8138,1.51,6.88,1111122 
SCCF RECON,ioos:station:SCCF:18:1,2019-01-14T07:00:00Z,26.6955,-81.8138,1.474,6.52,1111122 
SCCF RECON,ioos:station:SCCF:18:1,2019-01-14T08:00:00Z,26.6955,-81.8138,1.44,6.39,1111122 
SCCF RECON,ioos:station:SCCF:18:1,2019-01-14T09:00:00Z,26.6955,-81.8138,1.4,6.46,1111122 
SCCF RECON,ioos:station:SCCF:18:1,2019-01-14T10:00:00Z,26.6955,-81.8138,1.38,6.36,1111122 
SCCF RECON,ioos:station:SCCF:18:1,2019-01-14T11:00:00Z,26.6955,-81.8138,1.41,6.34,1111122 
SCCF RECON,ioos:station:SCCF:18:1,2019-01-14T12:00:00Z,26.6955,-81.8138,1.47,6.58,1111122 
SCCF RECON,ioos:station:SCCF:18:1,2019-01-14T13:00:00Z,26.6955,-81.8138,1.51,6.33,1111122 
SCCF RECON,ioos:station:SCCF:18:1,2019-01-14T14:00:00Z,26.6955,-81.8138,1.524,6.65,1111122 
SCCF RECON,ioos:station:SCCF:18:1,2019-01-14T15:00:00Z,26.6955,-81.8138,1.52,6.85,1111122 
SCCF RECON,ioos:station:SCCF:18:1,2019-01-14T16:00:00Z,26.6955,-81.8138,1.471,6.57,1111122 
SCCF RECON,ioos:station:SCCF:18:1,2019-01-14T17:00:00Z,26.6955,-81.8138,1.42,6.66,1111122 
SCCF RECON,ioos:station:SCCF:18:1,2019-01-14T18:00:00Z,26.6955,-81.8138,1.38,6.3,1111122 
SCCF RECON,ioos:station:SCCF:18:1,2019-01-14T19:00:00Z,26.6955,-81.8138,1.354,6.86,1111122 
SCCF RECON,ioos:station:SCCF:18:1,2019-01-14T20:00:00Z,26.6955,-81.8138,1.329,6.84,1111122 
SCCF RECON,ioos:station:SCCF:18:1,2019-01-14T21:00:00Z,26.6955,-81.8138,1.31,6.95,1111122 
SCCF RECON,ioos:station:SCCF:18:1,2019-01-14T22:00:00Z,26.6955,-81.8138,1.31,6.73,1111122 
SCCF RECON,ioos:station:SCCF:18:1,2019-01-15T05:00:00Z,26.6955,-81.8138,1.48,7.3,1111122 
SCCF RECON,ioos:station:SCCF:18:1,2019-01-15T06:00:00Z,26.6955,-81.8138,1.4,6.72,1111122 
SCCF RECON,ioos:station:SCCF:18:1,2019-01-15T07:00:00Z,26.6955,-81.8138,1.358,6.66,1111122 
SCCF RECON,ioos:station:SCCF:18:1,2019-01-15T08:00:00Z,26.6955,-81.8138,1.33,6.73,1111122 
SCCF RECON,ioos:station:SCCF:18:1,2019-01-15T09:00:00Z,26.6955,-81.8138,1.281,6.8,1111122 
SCCF RECON,ioos:station:SCCF:18:1,2019-01-15T10:00:00Z,26.6955,-81.8138,1.24,6.74,1111122 
SCCF RECON,ioos:station:SCCF:18:1,2019-01-15T11:00:00Z,26.6955,-81.8138,1.22,6.84,1111122 
SCCF RECON,ioos:station:SCCF:18:1,2019-01-15T12:00:00Z,26.6955,-81.8138,1.22,6.93,1111122 